Погода в Митино

Россия / Курганская область     55°11′38″N   65°28′40″E
темп.,
°C
ветер,
м/с
пор.,
м/с
влажн.,
%
обл.,
%
осадки,
мм/ч
давл.,
гПа
погр.,
м
28 ноября, вс
вс2823:00−6юз6139252 0.0 1028250
02:00−8юз5109290 0.0 1030170
05:00−9юз5109236 0.0 1030151
08:00−9юз489210 0.0 1031103
11:00−8ююз49885 0.0 1031179
14:00−6ююз511785 0.0 1031235
17:00−8ююз51278100 0.0 1031210
20:00−6ююз61477100 0.0 1029279
29 ноября, пн
пн2923:00−6ююз61478100 0.0 1029294
02:00−6ююз61375100 0.0 1028262
05:00−7ююз51277100 0.0 1027233
08:00−7ююз51178100 0.0 1026208
11:00−6ююз51078100 0.0 1026225
14:00−5ююз498044 0.0 1025213
17:00−8ююз49855 0.0 1024114
20:00−9ююз37875 0.0 1025103
30 ноября, вт
вт3023:00−10ююз36885 0.0 102483
02:00−10ююз36879 0.0 102477
05:00−10ююз368614 0.0 102382
08:00−10ююз358553 0.0 102375
11:00−7ю47795 0.0 1022138
14:00−6ююз497769 0.0 1021202
17:00−7ююз512779 0.0 1020218
20:00−8ю6138298 0.0 1018212
1 декабря, ср
ср123:00−7ю61675100 0.0 1017276
02:00−5ююз71971100 0.0 1015370
05:00−3ююз81971100 0.0 1013421
08:00−3ююз81676100 0.1 1012332
11:00−2ююз81986100 1.1 1012428
14:00−1ююз81780100 0.2 1012468
17:000ю71789100 0.9 1011384
20:000ю71772100 0.0 1009384
2 декабря, чт
чт223:000ююв71871100 0.0 1006400
02:00+1ю8217393 0.0 1004510
05:00+2ю81975100 0.0 1002575
08:00+2ю81782100 0.0 1001479
11:00+2ююз7148893 0.0 1001501
14:00+1юз7139192 0.0 1001462
17:000зюз5119154 0.0 1003341
20:00−4зюз499491 0.0 1005174